Regional Weather Roundup
Issued by NWS Goodland, KS

Home | Current Version | Previous Version | Graphics & Text | Print | Product List | Glossary On
Versions: 1 2 3 4 5 6 7 8 9 10 11 12 13 14 15 16 17 18 19 20 21 22 23 24 25 26 27 28 29 30 31 32 33 34 35 36 37 38 39 40 41 42 43 44 45 46 47 48 49 50
000
ASUS43 KGLD 260308
RWRGLD

GOODLAND FORECAST AREA HOURLY WEATHER ROUNDUP
NATIONAL WEATHER SERVICE GOODLAND KS
900 PM MDT SUN JUN 25 2017

...OFFICIAL OBSERVATIONS...

CITY           SKY/WX    TMP DP  RH WIND       PRES   REMARKS
GOODLAND KS    CLEAR     58  58 100 SE8       30.27S
HILL CITY KS   CLOUDY    60  58  92 CALM      30.27R
IMPERIAL NEB   CLEAR     58  52  80 S8        30.25F
MCCOOK NEB     PTCLDY    60  54  80 S8        30.24F
AKRON CO       CLEAR     58  52  80 SE9       30.30R
BURLINGTON CO  MOCLDY    60  58  92 SE8       30.30R
LIMON CO       CLOUDY    61  55  81 SE14      30.34R
$$

...UNOFFICIAL OBSERVATIONS...

CITY           SKY/WX    TMP DP  RH WIND       PRES   REMARKS
LENORA KS        N/A     58  32  37 MISG        N/A
NORTON KS      CLOUDY    61  52  72 S6        30.25R
SHARON SPRINGS   N/A     60  57  90 E7          N/A
TRIBUNE KS     CLOUDY    66  57  72 E10       30.29
TRENTON NEB      N/A     57  32  39 CALM        N/A
KIT CARSON CO    N/A     64  55  73 MISG        N/A
YUMA CO        FAIR      55  54  94 SE8       30.28S
$$



USA.gov is the U.S. government's official web portal to all federal, state and local government web resources and services.